Yangyang International Airport
RKNY : now visible

Airfield :











YOU CAN JOIN US ON...

 
LOGIN :

Register | Disclaimer

   EN    FR    IT 

 









Legend :    VFR   Marginal VFR   IFR   Intensive IFR   Very Intensive IFR
Visi :
Ceiling :
>= 8 km
>= 3000ft
5 to 8 km
1000 to 3000 ft
1500m to 5 km
500 to 1000 ft
800 to 1500m
200 to 500 ft
< 800m
< 200 ft
Symbols :   Thunderstorms  Fog  Heavy snow  Heavy precipitations  Wind > 20 kt







- Airport Elevation : 241 ft
- IATA code : YNY


RKNY - Yangyang International

CURRENT METAR :
  • 181000Z 00000KT CAVOK 24/21 Q1006 NOSIG

EXPIRED METARs :
  • 180900Z 12003KT CAVOK 25/21 Q1006 NOSIG
  • 180800Z 12003KT 060V150 CAVOK 26/20 Q1006 NOSIG

TAF TAF RKNY
Valid from the 18 at 06:00 until the 19 at 12:00 UTC


180500Z 1806/1912 12005KT 9999 FEW040 SCT180 TN22/1821Z TN28/1902Z
BECMG 1811/1812 25005KT
BECMG 1902/1903 10005KT
RKRR FIR / Asia



MET'MAP, your aeronautical weather chart ! - Copyright ORBIFLY December 2007 - Disclaimer

ORBIFLY MET'MAP TEAM :

Programming & Development : Alexandra Zaïnal
Concept & Development : Baudouin d'Aumeries
Co-Development & Prog : Marc-Olivier Méhu
Technical & hardware support : Manuel Goepfert

Contact : metmap@orbifly.com




SOURCES & CREDITS :

   NOAA       Earth
Advisory